Regional Weather Roundup
Issued by NWS

Home | Current Version | Previous Version | Text Only | Print | Product List | Glossary On
Versions: 1 2 3 4 5 6 7 8 9 10 11 12 13 14 15 16 17 18 19 20 21 22 23 24 25 26 27 28 29 30 31 32 33 34 35 36 37 38 39 40 41 42 43 44 45 46 47 48 49 50
000
ASUS42 KTBW 271516
RWRFL
FLORIDA REGIONAL WEATHER ROUNDUP
NATIONAL WEATHER SERVICE TAMPA BAY RUSKIN FL
1100 AM EDT MON APR 27 2015

NOTE: "FAIR" INDICATES FEW OR NO CLOUDS BELOW 12,000 FEET WITH NO
SIGNIFICANT WEATHER AND/OR OBSTRUCTIONS TO VISIBILITY.


FLZ001>010-012>015-112-114-115-271600-
PANHANDLE FLORIDA

CITY           SKY/WX    TMP DP  RH WIND       PRES   REMARKS
PENSACOLA      CLOUDY    68  61  78 NE8       29.82F
PENSACOLA NAS  TSTM      69  64  84 NE12      29.79F
MILTON NAS     CLOUDY    68  61  78 E7        29.84
CRESTVIEW      CLOUDY    68  61  78 NE6       29.86S
DUKE FIELD     PTSUNNY   67  62  85 NE6       29.83F THUNDER
VALPARAISO     CLOUDY    69  62  79 NE8       29.83S THUNDER
MARY ESTHER    LGT RAIN  68  61  77 E2        29.82R
TRI COUNTY       N/A     68  60  75 E5        29.87
PANAMA CITY    FAIR      69  63  81 N9        29.82S
TYNDALL AFB    DRIZZLE   71  67  88 NE7       29.84S
APALACHICOLA   LGT RAIN  75  72  90 SE3       29.81S

STATION/POSITION SKY/WX   TEMP    WIND        PRES    WAVE   SWELL
                          AIR SEA DIR/SP/G            HT/PER HT/PER
                          (F)     (DEG/KT/KT) (MB)    (FT/S) (FT/S)
30.1N   87.6W              73 75   70/ 21/ 23 1007.4F   3/ 4   2/ 7
29.2N   88.2W              74 77  100/ 12/ 16 1008.2F   4/ 7   3/ 7
28.8N   86.0W              75 76   90/ 10/ 12 1008.7S   2/ 6   2/ 6
PANAMA CITY BEAC           71 76   70/  5/ 12 1010.0R
CAPE SAN BLAS    NOT AVBL
TOWER C                    73     230/ 11/ 12 1010.1R
28.5N   84.5W              75 77   CALM  /  2 1009.6R   3/ 7   2/ 7

$$
FLZ011-016>038-118-127-128-134-139-239-271600-
NORTH FLORIDA

CITY           SKY/WX    TMP DP  RH WIND       PRES   REMARKS
MARIANNA       CLOUDY    68  62  81 NE8       29.85R
TALLAHASSEE    CLOUDY    73  61  65 N6        29.85R
PERRY          PTSUNNY   75  68  77 CALM      29.83S
CROSS CITY       N/A     80  69  69 W9        29.81F
LAKE CITY      FAIR      73  66  78 NW5       29.83R
GAINESVILLE    CLOUDY    76  70  82 W9        29.82S
MAYPORT NAS    CLOUDY    71  65  81 NE8       29.83R
JACKSONVILLE   CLOUDY    72  66  81 E5        29.82S
JAX NAS        CLOUDY    78  65  63 W5        29.82F
JAX CRAIG      CLOUDY    72  65  78 NE6       29.83R
JAX CECIL      MOSUNNY   75  66  73 VRB5      29.82F
FERNANDINA BEA CLOUDY    73  66  78 NE5       29.82R
ST AUGUSTINE   PTSUNNY   73  70  88 NE12      29.82F

STATION/POSITION SKY/WX   TEMP    WIND        PRES    WAVE   SWELL
                          AIR SEA DIR/SP/G            HT/PER HT/PER
                          (F)     (DEG/KT/KT) (MB)    (FT/S) (FT/S)
SHELL POINT                74      40/  4/  8   N/A
KEATON BEACH               76     280/ 11/ 13 1009.9R
CEDAR KEY                  76     310/  7/  9 1009.6F
FERNANDINA                 70 72   20/  6/  9 1009.1R
30.7N   81.3W                 69                N/A     3/ 4
MAYPORT                    69 69   40/  9/ 10 1009.9R
31.4N   80.9W              62 70   30/ 12/ 14 1010.3S   4/ 6   3/ 6
ST AUGUSTINE               69 68   10/ 14/ 15 1009.7F

$$
FLZ040-043>046-052-053-057-058-063-144-271600-
INTERIOR CENTRAL FLORIDA

CITY           SKY/WX    TMP DP  RH WIND       PRES   REMARKS
OCALA          SUNNY     77  66  69 NW12G21   29.82F
THE VILLAGES     N/A     75  75 100 SW7G14    29.72S
LEESBURG       CLOUDY    74  68  81 W7G17     29.83F
SANFORD        CLOUDY    76  64  66 W14       29.83F
ORLANDO EXEC   PTSUNNY   77  65  66 NW8       29.83F
ORLANDO INTL   PTSUNNY   79  66  64 W12G23    29.84F
KISSIMMEE      PTSUNNY   81  68  65 NW14G21   29.84F
WINTER HAVEN   PTSUNNY   79  66  64 W12G23    29.86F
OKEECHOBEE     SUNNY     86  70  58 W10G16    29.85F

$$
FLZ041-047-054-059-064-141-147-271600-
EAST CENTRAL FLORIDA

CITY           SKY/WX    TMP DP  RH WIND       PRES   REMARKS
ORMOND BEACH   MOSUNNY   81  72  74 NW3       29.79F FOG
DAYTONA BEACH  PTSUNNY   79  72  79 W8        29.80S
DELAND           N/A     77  68  73 W8        29.81F
NEW SMYRNA BEA SUNNY     77  70  78 W9G16     29.82R
JFK SPACE CTR  CLOUDY    78  64  61 W14G20    29.81F
TITUSVILLE     CLOUDY    79  64  61 W17       29.84R
CAPE CANAVERAL CLOUDY    79  65  63 NW18G25   29.81F
PATRICK AFB    CLOUDY    81  66  60 NW15      29.82S
MELBOURNE      CLOUDY    82  64  54 W21       29.83S
VERO BEACH     PTSUNNY   87  69  54 W21       29.84S
FT PIERCE      MOSUNNY   88  69  53 NW14      29.83S

STATION/POSITION SKY/WX   TEMP    WIND        PRES    WAVE   SWELL
                          AIR SEA DIR/SP/G            HT/PER HT/PER
                          (F)     (DEG/KT/KT) (MB)    (FT/S) (FT/S)
28.5N   80.2W              77 76  290/ 17/ 21 1009.9R
28.9N   78.5W              80 79  290/ 17/ 19 1008.4R
TRIDENT PIER               78 78  270/ 12/ 14 1010.7R
28.4N   80.5W                 77                N/A     1/ 2
27.5N   80.2W                 77                N/A     1/ 2

$$
FLZ050-056-061-142-242-148-248-149-249-151-251-155-255-
160-260-271600-
WEST CENTRAL FLORIDA

CITY           SKY/WX    TMP DP  RH WIND       PRES   REMARKS
CRYSTAL RIVER  FAIR      75  68  78 W8        29.81R
INVERNESS      LGT RAIN N/A N/A N/A CALM      29.82S
BROOKSVILLE    LGT RAIN  78  69  73 SW6G17    29.81F
CLEARWATER     CLOUDY    80  68  66 CALM      29.82F
TAMPA INTL     PTSUNNY   80  66  62 CALM      29.83F
TAMPA EXEC     PTSUNNY   81  66  61 CALM      29.84F
PLANT CITY     PTSUNNY   81  70  69 NW9       29.85F
MACDILL AFB    PTSUNNY   83  70  65 VRB5      29.83F
PETER O KNIGHT PTSUNNY   82  68  61 NW3       29.83F
ST PETERSBURG  PTSUNNY   82  66  58 NE3       29.82F
SARASOTA       PTSUNNY   84  67  56 N10       29.84S
VENICE         FAIR      84  75  74 W8        29.86F

STATION/POSITION SKY/WX   TEMP    WIND        PRES    WAVE   SWELL
                          AIR SEA DIR/SP/G            HT/PER HT/PER
                          (F)     (DEG/KT/KT) (MB)    (FT/S) (FT/S)
CEDAR KEY                  76     310/  7/  9 1009.6F
28.5N   84.5W              75 77   CALM  /  2 1009.6R   3/ 7   2/ 7
27.3N   84.2W                 79                N/A     3/ 7
CLEARWATER BEACH NOT AVBL
MIDDLE TAMPA BAY           81     350/ 10/ 15 1011.6R
VENICE                     82 83  300/  6/  7 1010.6S

$$
FLZ066-069-070-075>078-162-262-165-265-271600-
SOUTHWEST FLORIDA AND KEYS

CITY           SKY/WX    TMP DP  RH WIND       PRES   REMARKS
PUNTA GORDA    SUNNY     88  70  55 W7        29.87F
FT MYERS       SUNNY     88  73  61 W9G17     29.85F HX  95
SOUTHWEST INTL MOSUNNY   87  72  60 VRB7      29.86F
NAPLES         SUNNY     86  74  67 NW8       29.86F
MARCO ISLAND   CLOUDY    88  72  58 NW8       29.87S
IMMOKALEE      PTSUNNY  N/A N/A N/A W7        29.87F
MARATHON       SUNNY     89  78  70 NW7       29.88R HX 103
KEY WEST NAS   PTSUNNY   85  75  72 W3        29.87R
KEY WEST INTL  PTSUNNY   85  75  72 SW7       29.87S

STATION/POSITION SKY/WX   TEMP    WIND        PRES    WAVE   SWELL
                          AIR SEA DIR/SP/G            HT/PER HT/PER
                          (F)     (DEG/KT/KT) (MB)    (FT/S) (FT/S)
VENICE                     82 83  300/  6/  7 1010.6S
NAPLES                     82 85  310/  8/ 10 1011.4R
26.0N   85.6W              81 80  160/  6/  6 1009.6R   4/ 6   3/ 6
DRY TORTUGAS               82      70/  4/  4 1011.1R
NW FL BAY                  84     310/  5/  7 1011.5
SAND KEY                   83     290/  4/  5 1011.8R
SOMBRERO KEY               83     230/  3/  3 1012.4R
LONG KEY                   84 87  310/  7/  8 1012.4R
MOLASSES REEF              83 82  360/  5/  6 1011.7R

$$
FLZ067-068-071>074-168-172>174-271600-
SOUTHEAST FLORIDA

CITY           SKY/WX    TMP DP  RH WIND       PRES   REMARKS
W PALM BEACH   MOSUNNY   86  73  65 W12       29.86F
FT LAUDER-EXEC MOSUNNY   88  67  49 NW12G23   29.86R
FT LAUDERDALE  PTSUNNY   88  72  58 W12G23    29.85S
POMPANO BEACH  MOSUNNY   88  70  55 NW15      29.86R
PEMBROKE PINES SUNNY     89  73  59 W12       29.88R HX  97
OPA LOCKA      SUNNY     88  73  61 W13       29.87R HX  95
MIAMI          PTSUNNY   88  72  58 W7        29.87S
WEST KENDALL   MOSUNNY   89  71  55 VRB6      29.87S HX  95
HOMESTEAD      SUNNY     88  74  63 NW7       29.86F HX  97

STATION/POSITION SKY/WX   TEMP    WIND        PRES    WAVE   SWELL
                          AIR SEA DIR/SP/G            HT/PER HT/PER
                          (F)     (DEG/KT/KT) (MB)    (FT/S) (FT/S)
PORT EVERGLADES            86     300/ 13/ 18 1011.2R
VIRGINIA KEY               84 83  280/  5/  7 1010.9R
LAKE WORTH                 82 79  290/ 10/ 18 1010.6R
SETTLEMENT POINT           80     290/ 16/ 18 1011.5R

$$




USA.gov is the U.S. government's official web portal to all federal, state and local government web resources and services.